Regional Weather Roundup
Issued by NWS Sioux Falls, SD

Home | Current Version | Previous Version | Text Only | Print | Product List | Glossary On
Versions: 1 2 3 4 5 6 7 8 9 10 11 12 13 14 15 16 17 18 19 20 21 22 23 24 25 26 27 28 29 30 31 32 33 34 35 36 37 38 39 40 41 42 43 44 45 46 47 48 49 50
000
ASUS43 KFSD 301202
RWRFSD

WEATHER ROUNDUP FOR SE SOUTH DAKOTA/SW MINNESOTA/NW IOWA
NATIONAL WEATHER SERVICE SIOUX FALLS SD
700 AM CDT TUE JUN 30 2015

NOTE: "FAIR" INDICATES FEW OR NO CLOUDS BELOW 12,000 FEET WITH NO
SIGNIFICANT WEATHER AND OR OBSTRUCTIONS TO VISIBILITY.


SDZ038>040-050-052>070-301300-
SOUTHEAST SOUTH DAKOTA

CITY           SKY/WX    TMP DP  RH WIND       PRES   REMARKS
BROOKINGS      CLOUDY    63  57  82 CALM      29.98R
CHAMBERLAIN    CLOUDY    67  63  87 SE7       29.94F
6HR MIN TEMP:  66; 6HR MAX TEMP:  72; 6HR PCP:  0.01;

HURON          CLOUDY    67  65  93 S3        29.94F FOG
6HR MIN TEMP:  66; 6HR MAX TEMP:  70; 6HR PCP: TRACE;

MADISON        FAIR      63  63 100 N3        29.97S
MITCHELL       LGT RAIN  68  67  96 SE3       29.95F FOG
6HR MIN TEMP:  67; 6HR MAX TEMP:  73; 6HR PCP:  0.08;

SIOUX FALLS    CLOUDY    65  62  90 CALM      29.95S
6HR MIN TEMP:  62; 6HR MAX TEMP:  69;

WINNER         PTSUNNY   70  60  70 SE13      29.96R
YANKTON        CLOUDY    66  63  88 W3        29.96R
$$

MNZ071-072-080-081-089-090-097-098-301300-
SOUTHWEST MINNESOTA

CITY           SKY/WX    TMP DP  RH WIND       PRES   REMARKS
FAIRMONT       SUNNY     64  57  77 NW7       29.92R
JACKSON        MOSUNNY   63  63 100 NW5       29.95R FOG
LUVERNE        PTSUNNY   64  61  88 VRB3      29.96S
MARSHALL       MOSUNNY   61  55  82 NW7         N/A
6HR MIN TEMP:  61; 6HR MAX TEMP:  64;

MONTEVIDEO     SUNNY     61  61 100 CALM      29.95S FOG
PIPESTONE      PTSUNNY   63  61  94 CALM      29.96F
REDWOOD FALLS  SUNNY     64  61  90 N3        29.93R FOG
TRACY          MOSUNNY   63  62  97 NW5       29.96R FOG
WINDOM         SUNNY     63  61  94 CALM      29.94S FOG
WORTHINGTON    PTSUNNY   63  57  82 NW6       29.96R
$$

IAZ001>003-012>014-020>022-031-032-NEZ013-014-SDZ071-301300-
NORTHWEST IOWA

CITY           SKY/WX    TMP DP  RH WIND       PRES   REMARKS
DENISON        CLOUDY    63  63 100 CALM      29.92R FOG
ESTHERVILLE    MOSUNNY   62  61  96 NW7       29.93R FOG
SIOUX CITY     CLOUDY    68  62  81 N6        29.96R HAZE
6HR MIN TEMP:  63; 6HR MAX TEMP:  68;

SPENCER        MOSUNNY   61  60  97 NW5       29.94R FOG
6HR MIN TEMP:  58; 6HR MAX TEMP:  63;

$$

ABBREVIATIONS USED IN REMARKS
   TC - TEMPERATURE IN CELSIUS
  WCI - WIND CHILL INDEX
   HX - HEAT INDEX
  VSB - VISIBILITY



USA.gov is the U.S. government's official web portal to all federal, state and local government web resources and services.